Location: Doverdale
(52.2833°N, 2.2000°W)
Time: 02:53:08
(UTC+00:00)

Cosmos 1980 Rocket - Pass Details

Date: 01 March 2021
Orbit: 828 x 851 km, 71.0° (Epoch: 15 April)

Event Time Altitude Azimuth Distance (km) Brightness Sun altitude
Rises 19:24:57 0° 236° (SW) 3,393 6.1 -15.5°
Reaches altitude 10° 19:27:32 10° 244° (WSW) 2,465 5.5 -15.9°
Maximum altitude 19:32:50 40° 313° (NW) 1,242 3.5 -16.7°
Drops below altitude 10° 19:38:12 10° 23° (NNE) 2,488 4.5 -17.5°
Sets 19:40:50 0° 31° (NNE) 3,429 5.2 -17.9°
